Location: Lone Wolf Observatory
(41.0360°N, 89.2260°W)
Time: 10:05:47
(UTC-06:00)

Amateur Radio Satellites - All Passes

Search period start: 22 January 2018 09:35
Search period end: 23 January 2018 09:35
Location: Lone Wolf Observatory, 41.0360°N, 89.2260°W

Satellite Date Start Highest point End Downlink Frequencies (MHz)
Time Altitude Azimuth
PCSat 22 Jan 09:42:04 09:47:27 72° 301° (WNW) 09:52:53 145.827
UNISAT 6 22 Jan 09:43:34 09:47:20 27° 265° (W) 09:51:10 437.425
POLYITAN 1 22 Jan 09:49:01 09:50:24 11° 62° (ENE) 09:51:47 437.675
O/OREOS (USA 219) 22 Jan 09:50:36 09:55:06 80° 66° (ENE) 09:59:35 437.305
NANOSAT C BR1 22 Jan 10:02:12 10:04:24 14° 64° (ENE) 10:06:36 145.865
BEESAT 2 22 Jan 10:07:20 10:11:20 88° 301° (WNW) 10:15:24 435.950
QB50P2 22 Jan 10:16:29 10:19:57 25° 68° (ENE) 10:23:27 145.880/145.840
DELFI C3 22 Jan 10:19:23 10:22:44 27° 290° (WNW) 10:26:03 145.870
LO-87 22 Jan 10:34:15 10:37:09 22° 95° (E) 10:40:01 145.935 - 145.965
RS-15 22 Jan 10:36:57 10:47:34 32° 329° (NNW) 10:57:58 29.354- 29.394
Max Valier Satellite 22 Jan 10:38:50 10:41:44 22° 291° (WNW) 10:44:37 145.860
DUCHIFAT 1 22 Jan 10:43:07 10:46:52 32° 70° (ENE) 10:50:39 145.980
EO-79 22 Jan 10:46:06 10:50:08 47° 73° (ENE) 10:54:14 145.935-145.965
AIST 2D 22 Jan 10:46:19 10:49:40 41° 261° (W) 10:53:01 435.315
AO-85 22 Jan 10:53:16 10:56:49 33° 115° (ESE) 11:00:35 145.980
EO-88 22 Jan 10:53:42 10:56:33 22° 291° (WNW) 10:59:22 145.990 - 145.960
BEESAT 3 22 Jan 10:56:35 10:57:41 11° 321° (NW) 10:58:47 437.485
YUBILEINY 22 Jan 11:02:14 11:10:18 44° 273° (W) 11:18:18 435.215
PRISM 22 Jan 11:02:55 11:05:12 15° 267° (W) 11:07:29 437.425
ESTCUBE 1 22 Jan 11:20:36 11:25:04 62° 101° (E) 11:29:29 437.505/2401.250
POLYITAN 1 22 Jan 11:21:22 11:25:34 68° 258° (WSW) 11:29:51 437.675
PCSat 22 Jan 11:29:07 11:31:50 14° 321° (NW) 11:34:34 145.827
AO-91 22 Jan 11:30:56 11:32:06 11° 64° (ENE) 11:33:17 145.960
NANOSAT C BR1 22 Jan 11:35:30 11:39:37 53° 260° (W) 11:43:47 145.865
BUGSAT 1 22 Jan 11:38:08 11:41:41 29° 69° (ENE) 11:45:16 437.445
BEESAT 2 22 Jan 11:48:08 11:49:39 12° 321° (NW) 11:51:12 435.950
QB50P2 22 Jan 11:52:00 11:55:37 27° 264° (W) 11:59:17 145.880/145.840
LO-87 22 Jan 12:07:34 12:10:26 22° 291° (WNW) 12:13:18 145.935 - 145.965
Gurwin Techsat 1B 22 Jan 12:19:15 12:24:13 42° 69° (ENE) 12:29:11 435.225
DUCHIFAT 1 22 Jan 12:19:23 12:22:33 21° 266° (W) 12:25:45 145.980
Oscar 19 22 Jan 12:19:41 12:24:45 56° 72° (ENE) 12:29:50 437.125/150
EO-79 22 Jan 12:23:48 12:26:09 14° 269° (W) 12:28:29 145.935-145.965
AO-7 22 Jan 12:27:10 12:32:24 19° 49° (NE) 12:37:40 .
SPROUT 22 Jan 12:32:49 12:37:09 89° 284° (WNW) 12:41:27 437.525
AO-85 22 Jan 12:33:57 12:37:17 24° 314° (NW) 12:40:48 145.980
SO-50 22 Jan 12:38:30 12:42:27 26° 46° (NE) 12:46:25 436.795
VELOX 1 22 Jan 12:48:58 12:53:21 71° 101° (ESE) 12:57:45 145.980
RS-15 22 Jan 12:56:36 13:05:23 22° 5° (N) 13:13:53 29.354- 29.394
ESTCUBE 1 22 Jan 12:59:08 13:01:19 14° 298° (WNW) 13:03:29 437.505/2401.250
DX 1 22 Jan 13:00:45 13:03:39 17° 93° (E) 13:06:33 434.975-435.025
50 SAT 22 Jan 13:02:07 13:03:11 11° 93° (E) 13:04:15 437.505
AO-91 22 Jan 13:05:03 13:08:12 37° 262° (W) 13:11:28 145.960
BUGSAT 1 22 Jan 13:13:51 13:17:01 22° 266° (W) 13:20:15 437.445
ITAMSAT 1 22 Jan 13:32:18 13:35:08 15° 60° (ENE) 13:37:59 435.822/435.867
Gurwin Techsat 1B 22 Jan 14:00:01 14:04:17 24° 266° (W) 14:08:34 435.225
Oscar 19 22 Jan 14:00:57 14:04:23 18° 268° (W) 14:07:51 437.125/150
AO-7 22 Jan 14:15:31 14:23:51 77° 68° (ENE) 14:32:14 .
SO-50 22 Jan 14:18:35 14:23:03 43° 243° (WSW) 14:27:34 436.795
UKube-1 22 Jan 14:19:58 14:24:18 79° 104° (ESE) 14:28:35 .
VELOX 1 22 Jan 14:27:38 14:29:12 12° 299° (WNW) 14:30:45 145.980
50 SAT 22 Jan 14:32:12 14:34:58 29° 288° (WNW) 14:37:44 437.505
DX 1 22 Jan 14:35:55 14:39:59 41° 289° (WNW) 14:44:04 434.975-435.025
ITUPSAT 1 22 Jan 14:44:37 14:48:27 23° 95° (E) 14:52:14 437.325
MOZHAYETS 4 22 Jan 14:57:50 15:02:25 59° 101° (E) 15:06:57
M-CUBED/EXP-1 PRIME 22 Jan 15:01:40 15:05:19 28° 65° (ENE) 15:08:46 437.505
CUBESAT XI-V 22 Jan 15:06:42 15:09:52 18° 92° (E) 15:12:59 437.345
ITAMSAT 1 22 Jan 15:08:49 15:13:58 73° 257° (WSW) 15:19:09 435.822/435.867
RS-15 22 Jan 15:11:29 15:22:27 40° 38° (NE) 15:32:51 29.354- 29.394
BEESAT 22 Jan 15:22:22 15:27:07 57° 101° (E) 15:31:49 436.000
UKube-1 22 Jan 15:59:05 15:59:38 10° 300° (WNW) 16:00:11 .
XW-2F 22 Jan 16:04:33 16:05:51 11° 64° (ENE) 16:07:09 145.980 - 146.000
DOVE 4 22 Jan 16:06:23 16:10:38 74° 258° (WSW) 16:14:49 437.250
AO-7 22 Jan 16:11:10 16:17:21 23° 267° (W) 16:23:35 .
NO-84 22 Jan 16:13:05 16:16:14 77° 137° (SE) 16:19:13 435.350 FM
HO-68 22 Jan 16:14:26 16:18:45 17° 54° (NE) 16:23:04 435.675
XW-2D 22 Jan 16:14:33 16:17:04 17° 67° (ENE) 16:19:36 145.860 - 145.880
KKS-1 22 Jan 16:15:14 16:17:11 13° 91° (E) 16:19:08 437.445
ITUPSAT 1 22 Jan 16:21:54 16:26:20 37° 291° (WNW) 16:30:45 437.325
XW-2B 22 Jan 16:31:29 16:34:39 25° 70° (ENE) 16:37:50 145.730 - 145.750
M-CUBED/EXP-1 PRIME 22 Jan 16:36:00 16:39:36 26° 258° (WSW) 16:43:03 437.505
MOZHAYETS 4 22 Jan 16:36:27 16:39:03 15° 297° (WNW) 16:41:38
CUBESAT XI-V 22 Jan 16:43:03 16:47:25 43° 288° (WNW) 16:51:45 437.345
CUTE 1.7 + AOD 2 22 Jan 16:44:26 16:45:53 12° 63° (ENE) 16:47:21 437.475
PCSat 22 Jan 16:47:58 16:51:16 16° 41° (NE) 16:54:33 145.827
CUTE-I 22 Jan 16:55:29 17:00:33 47° 70° (ENE) 17:05:37 437.470
XW-2C 22 Jan 17:01:15 17:05:01 60° 75° (ENE) 17:08:48 145.795 - 145.815
BEESAT 22 Jan 17:01:26 17:04:24 17° 298° (WNW) 17:07:21 436.000
LilacSat-2 22 Jan 17:01:28 17:05:18 67° 76° (ENE) 17:09:08 437.200
CUBEBUG 2 22 Jan 17:14:50 17:17:42 17° 64° (ENE) 17:20:38 437.445
UWE-3 22 Jan 17:18:23 17:19:12 10° 60° (ENE) 17:20:01 435.000/436.395/437.385
RS-15 22 Jan 17:24:14 17:35:47 71° 244° (WSW) 17:46:44 29.354- 29.394
KAITUO 1B 22 Jan 17:30:28 17:34:15 83° 258° (WSW) 17:38:01 145.475/437.950
BEESAT 3 22 Jan 17:32:09 17:36:00 52° 54° (NE) 17:39:45 437.485
XW-2F 22 Jan 17:35:45 17:39:28 52° 260° (W) 17:43:11 145.980 - 146.000
NUDT-PHONESAT 22 Jan 17:37:52 17:41:34 71° 257° (WSW) 17:45:19 437.300
AAUSAT CUBESAT 2 22 Jan 17:39:20 17:40:35 11° 63° (ENE) 17:41:49 437.432
XW-2D 22 Jan 17:47:29 17:50:58 33° 263° (W) 17:54:28 145.860 - 145.880
KKS-1 22 Jan 17:49:42 17:54:06 59° 287° (WNW) 17:58:28 437.445
NO-84 22 Jan 17:52:02 17:53:41 14° 334° (NNW) 17:55:18 435.350 FM
HO-68 22 Jan 17:58:17 18:05:26 85° 74° (ENE) 18:12:39 435.675
STARS 22 Jan 17:59:54 18:04:19 69° 102° (ESE) 18:08:43 437.465
SEEDS 22 Jan 18:00:38 18:04:39 46° 73° (ENE) 18:08:42 437.485
XW-2B 22 Jan 18:05:46 18:08:46 22° 265° (W) 18:11:45 145.730 - 145.750
Oscar 11 22 Jan 18:13:42 18:14:59 11° 62° (ENE) 18:16:16 .
CUTE 1.7 + AOD 2 22 Jan 18:16:54 18:21:08 67° 259° (W) 18:25:24 437.475
BEESAT 2 22 Jan 18:24:54 18:28:49 50° 54° (NE) 18:32:40 435.950
PCSat 22 Jan 18:30:01 18:35:28 87° 63° (ENE) 18:40:53 145.827
CUTE-I 22 Jan 18:36:46 18:40:47 22° 266° (W) 18:44:51 437.470
FO-29 22 Jan 18:43:28 18:44:30 11° 89° (E) 18:45:34 435.910
CUBEBUG 2 22 Jan 18:49:39 18:53:53 47° 262° (W) 18:58:17 437.445
STRAND 1 22 Jan 18:50:10 18:54:46 32° 96° (E) 18:59:22 437.568
UWE-3 22 Jan 18:50:26 18:54:52 84° 255° (WSW) 18:59:29 435.000/436.395/437.385
XW-2A 22 Jan 19:00:38 19:04:03 81° 77° (ENE) 19:07:29 145.665 - 145.685
ZACube-1 22 Jan 19:09:30 19:13:58 81° 74° (ENE) 19:18:32 437.345
BEESAT 3 22 Jan 19:11:15 19:13:01 13° 251° (WSW) 19:14:48 437.485
AAUSAT CUBESAT 2 22 Jan 19:11:22 19:15:28 65° 259° (W) 19:19:34 437.432
AO-73 22 Jan 19:14:59 19:19:26 82° 77° (ENE) 19:24:00 145.935
AO-85 22 Jan 19:23:14 19:27:47 36° 50° (NE) 19:32:35 145.980
DELFI C3 22 Jan 19:31:13 19:32:56 13° 65° (ENE) 19:34:40 145.870
nSIGHT-1 22 Jan 19:33:12 19:36:19 64° 141° (SE) 19:39:28 .
SEEDS 22 Jan 19:38:13 19:40:34 14° 269° (W) 19:42:54 437.485
STARS 22 Jan 19:38:19 19:40:04 12° 299° (WNW) 19:41:50 437.465
RS-15 22 Jan 19:40:36 19:45:44 14° 265° (W) 19:50:48 29.354- 29.394
Max Valier Satellite 22 Jan 19:45:17 19:46:27 11° 64° (ENE) 19:47:38 145.860
Oscar 11 22 Jan 19:46:10 19:50:30 73° 258° (WSW) 19:54:52 .
HO-68 22 Jan 19:49:38 19:53:57 17° 270° (W) 19:58:18 435.675
ISS 22 Jan 19:54:41 19:57:55 71° 142° (SE) 20:01:11 437.550
EO-88 22 Jan 19:59:37 20:00:15 10° 64° (ENE) 20:00:53 145.990 - 145.960
BEESAT 2 22 Jan 20:03:57 20:06:05 14° 251° (WSW) 20:08:11 435.950
PCSat 22 Jan 20:16:03 20:18:02 12° 258° (WSW) 20:20:02 145.827
FO-29 22 Jan 20:25:05 20:30:17 80° 285° (WNW) 20:35:35 435.910
STRAND 1 22 Jan 20:29:24 20:33:52 31° 293° (WNW) 20:38:19 437.568
DELFI C3 22 Jan 21:03:26 21:07:14 49° 260° (W) 21:11:02 145.870
AO-85 22 Jan 21:03:41 21:08:11 33° 246° (WSW) 21:12:53 145.980
nSIGHT-1 22 Jan 21:10:12 21:12:43 21° 339° (NNW) 21:15:15 .
Max Valier Satellite 22 Jan 21:16:09 21:19:47 51° 261° (W) 21:23:27 145.860
TIGRISAT 22 Jan 21:18:25 21:22:52 40° 98° (E) 21:27:15 435.000
EO-88 22 Jan 21:29:49 21:33:23 53° 260° (W) 21:36:59 145.990 - 145.960
ISS 22 Jan 21:32:05 21:34:41 21° 340° (NNW) 21:37:17 437.550
UNISAT 6 22 Jan 21:34:09 21:38:51 65° 101° (E) 21:43:29 437.425
YUBILEINY 22 Jan 22:05:55 22:14:10 47° 88° (E) 22:22:25 435.215
AIST 2D 22 Jan 22:12:17 22:13:56 13° 92° (E) 22:15:34 435.315
ESTCUBE 1 22 Jan 22:19:33 22:23:58 55° 73° (ENE) 22:28:24 437.505/2401.250
PRISM 22 Jan 22:41:47 22:45:51 73° 102° (ESE) 22:49:56 437.425
LO-87 22 Jan 22:42:05 22:45:35 57° 259° (W) 22:49:08 145.935 - 145.965
NO-84 22 Jan 22:45:38 22:48:20 40° 38° (NE) 22:51:07 435.350 FM
nSIGHT-1 22 Jan 22:48:23 22:49:47 12° 359° (N) 22:51:11 .
TIGRISAT 22 Jan 22:55:41 22:59:15 22° 294° (WNW) 23:02:49 435.000
POLYITAN 1 22 Jan 23:06:54 23:10:01 19° 93° (E) 23:13:06 437.675
ISS 22 Jan 23:10:28 23:12:05 13° 360° (N) 23:13:41 437.550
UNISAT 6 22 Jan 23:12:29 23:14:58 14° 298° (WNW) 23:17:28 437.425
NANOSAT C BR1 22 Jan 23:20:06 23:23:33 23° 95° (E) 23:26:59 145.865
SPROUT 22 Jan 23:25:23 23:29:35 66° 75° (ENE) 23:33:50 437.525
QB50P2 22 Jan 23:36:02 23:40:10 46° 99° (E) 23:44:16 145.880/145.840
AIST 2D 22 Jan 23:44:03 23:47:12 33° 288° (WNW) 23:50:20 435.315
VELOX 1 22 Jan 23:45:38 23:49:56 60° 74° (ENE) 23:54:16 145.980
DX 1 22 Jan 23:56:35 23:59:12 16° 64° (ENE) 00:01:50 434.975-435.025
ESTCUBE 1 22 Jan 23:58:43 00:01:05 14° 269° (W) 00:03:27 437.505/2401.250
DUCHIFAT 1 23 Jan 00:01:54 00:06:08 60° 101° (E) 00:10:19 145.980
O/OREOS (USA 219) 23 Jan 00:02:31 00:07:02 83° 292° (WNW) 00:11:32 437.305
YUBILEINY 23 Jan 00:03:01 00:11:04 39° 288° (WNW) 00:19:09 435.215
EO-79 23 Jan 00:06:00 00:10:19 90° 284° (WNW) 00:14:35 145.935-145.965
NO-84 23 Jan 00:23:38 00:25:14 14° 232° (SW) 00:26:52 435.350 FM
nSIGHT-1 23 Jan 00:24:28 00:26:53 19° 20° (NNE) 00:29:17 .
Oscar 19 23 Jan 00:32:17 00:35:57 19° 92° (E) 00:39:36 437.125/150
Gurwin Techsat 1B 23 Jan 00:36:37 00:39:53 16° 91° (E) 00:43:09 435.225
POLYITAN 1 23 Jan 00:41:56 00:45:53 36° 289° (WNW) 00:49:47 437.675
ISS 23 Jan 00:46:54 00:49:29 21° 20° (NNE) 00:52:05 437.550
AO-91 23 Jan 00:52:49 00:57:07 36° 98° (E) 01:01:45 145.960
BUGSAT 1 23 Jan 00:54:16 00:58:26 51° 100° (E) 01:02:33 437.445
NANOSAT C BR1 23 Jan 00:55:31 00:59:13 29° 291° (WNW) 01:02:55 145.865
50 SAT 23 Jan 00:55:36 00:58:36 56° 75° (ENE) 01:01:39 437.505
SPROUT 23 Jan 01:05:16 01:05:53 10° 271° (W) 01:06:31 437.525
QB50P2 23 Jan 01:12:54 01:15:34 16° 295° (WNW) 01:18:13 145.880/145.840
UKube-1 23 Jan 01:13:48 01:18:02 64° 74° (ENE) 01:22:19 .
VELOX 1 23 Jan 01:25:04 01:26:44 12° 269° (W) 01:28:26 145.980
DX 1 23 Jan 01:30:48 01:34:59 48° 260° (W) 01:39:11 434.975-435.025
DUCHIFAT 1 23 Jan 01:39:22 01:41:15 13° 297° (WNW) 01:43:07 145.980
ITUPSAT 1 23 Jan 01:51:07 01:55:08 27° 67° (ENE) 01:59:09 437.325
MOZHAYETS 4 23 Jan 01:59:08 02:03:39 55° 73° (ENE) 02:08:12
nSIGHT-1 23 Jan 02:00:11 02:03:22 80° 214° (SW) 02:06:32 .
CUBESAT XI-V 23 Jan 02:09:56 02:13:11 19° 65° (ENE) 02:16:27 437.345
Oscar 19 23 Jan 02:10:32 02:15:32 50° 289° (WNW) 02:20:29 437.125/150
Gurwin Techsat 1B 23 Jan 02:15:00 02:20:15 62° 287° (WNW) 02:25:28 435.225
AO-7 23 Jan 02:18:21 02:24:54 25° 94° (E) 02:31:21 .
ISS 23 Jan 02:22:59 02:26:15 72° 218° (SW) 02:29:30 437.550
BEESAT 23 Jan 02:28:19 02:33:02 65° 73° (ENE) 02:37:46 436.000
AO-91 23 Jan 02:29:41 02:33:23 25° 291° (WNW) 02:37:21 145.960
BUGSAT 1 23 Jan 02:30:57 02:33:20 15° 296° (WNW) 02:35:42 437.445
FALCONSAT 3 23 Jan 02:37:27 02:39:54 17° 159° (SSE) 02:42:21 435.103
UKube-1 23 Jan 02:53:23 02:54:27 11° 270° (W) 02:55:32 .
KKS-1 23 Jan 03:13:40 03:15:34 13° 62° (ENE) 03:17:28 437.445
ITAMSAT 1 23 Jan 03:21:50 03:26:43 39° 98° (E) 03:31:34 435.822/435.867
ITUPSAT 1 23 Jan 03:28:33 03:32:49 32° 263° (W) 03:37:06 437.325
MOZHAYETS 4 23 Jan 03:38:33 03:41:08 15° 269° (W) 03:43:43
CUBESAT XI-V 23 Jan 03:45:41 03:50:11 46° 261° (W) 03:54:43 437.345
DOVE 4 23 Jan 04:04:38 04:08:27 28° 96° (E) 04:12:26 437.250
BEESAT 23 Jan 04:09:03 04:11:13 13° 270° (W) 04:13:24 436.000
AO-7 23 Jan 04:09:57 04:18:17 72° 292° (WNW) 04:26:34 .
M-CUBED/EXP-1 PRIME 23 Jan 04:14:51 04:16:39 14° 99° (E) 04:18:26 437.505
FALCONSAT 3 23 Jan 04:15:08 04:18:27 32° 174° (S) 04:21:46 435.103
SO-50 23 Jan 04:32:14 04:36:37 63° 120° (ESE) 04:41:05 436.795
KKS-1 23 Jan 04:47:10 04:51:32 66° 258° (WSW) 04:55:57 437.445
STARS 23 Jan 04:55:59 05:00:14 59° 73° (ENE) 05:04:33 437.465
ITAMSAT 1 23 Jan 05:01:42 05:05:57 26° 295° (WNW) 05:10:13 435.822/435.867
XW-2F 23 Jan 05:08:47 05:10:56 15° 92° (E) 05:13:03 145.980 - 146.000
NUDT-PHONESAT 23 Jan 05:10:52 05:10:56 10° 90° (E) 05:11:01 437.300
CUTE-I 23 Jan 05:13:26 05:17:05 19° 92° (E) 05:20:44 437.470
XW-2D 23 Jan 05:19:58 05:23:00 23° 95° (E) 05:25:59 145.860 - 145.880
HO-68 23 Jan 05:28:14 05:32:13 15° 89° (E) 05:36:10 435.675
XW-2B 23 Jan 05:37:19 05:40:49 35° 98° (E) 05:44:15 145.730 - 145.750
RS-15 23 Jan 05:38:35 05:46:25 20° 98° (E) 05:54:11 29.354- 29.394
DOVE 4 23 Jan 05:42:21 05:46:04 27° 290° (WNW) 05:49:57 437.250
M-CUBED/EXP-1 PRIME 23 Jan 05:48:17 05:51:09 27° 295° (WNW) 05:53:58 437.505
FALCONSAT 3 23 Jan 05:53:53 05:57:07 29° 190° (S) 06:00:20 435.103
CUTE 1.7 + AOD 2 23 Jan 06:02:27 06:05:37 20° 94° (E) 06:08:45 437.475
AO-7 23 Jan 06:04:42 06:09:36 17° 312° (NW) 06:14:30 .
STRAND 1 23 Jan 06:05:47 06:10:37 45° 70° (ENE) 06:15:28 437.568
XW-2C 23 Jan 06:07:39 06:11:24 88° 281° (W) 06:15:08 145.795 - 145.815
LilacSat-2 23 Jan 06:08:43 06:12:31 78° 285° (WNW) 06:16:15 437.200
SO-50 23 Jan 06:14:22 06:17:29 18° 318° (NW) 06:20:40 436.795
STARS 23 Jan 06:35:11 06:36:56 12° 269° (W) 06:38:42 437.465
KAITUO 1B 23 Jan 06:35:15 06:38:52 55° 285° (WNW) 06:42:28 145.475/437.950
FO-29 23 Jan 06:36:19 06:42:37 44° 70° (ENE) 06:48:13 435.910
CUBEBUG 2 23 Jan 06:40:12 06:44:38 37° 97° (E) 06:49:01 437.445
UWE-3 23 Jan 06:40:46 06:44:19 21° 93° (E) 06:47:49 435.000/436.395/437.385
NUDT-PHONESAT 23 Jan 06:41:30 06:45:03 49° 286° (WNW) 06:48:33 437.300
XW-2F 23 Jan 06:41:44 06:45:08 34° 288° (WNW) 06:48:32 145.980 - 146.000
CUTE-I 23 Jan 06:52:15 06:57:27 55° 288° (WNW) 07:02:38 437.470
XW-2D 23 Jan 06:54:05 06:57:04 23° 291° (WNW) 07:00:02 145.860 - 145.880
AAUSAT CUBESAT 2 23 Jan 06:54:06 06:57:01 19° 93° (E) 06:59:57 437.432
ZACube-1 23 Jan 06:59:04 07:01:59 17° 91° (E) 07:04:51 437.345
AO-73 23 Jan 07:04:14 07:07:05 16° 91° (E) 07:09:54 145.935
XW-2B 23 Jan 07:12:25 07:14:40 15° 294° (WNW) 07:16:54 145.730 - 145.750
HO-68 23 Jan 07:13:36 07:20:48 90° 287° (WNW) 07:27:59 435.675
SEEDS 23 Jan 07:19:36 07:23:46 87° 288° (WNW) 07:27:55 437.485
PCSat 23 Jan 07:33:24 07:34:03 10° 101° (E) 07:34:43 145.827
FALCONSAT 3 23 Jan 07:33:45 07:35:35 13° 204° (SSW) 07:37:26 435.103
Oscar 11 23 Jan 07:34:08 07:37:24 20° 94° (E) 07:40:36 .
CUTE 1.7 + AOD 2 23 Jan 07:37:44 07:41:29 32° 289° (WNW) 07:45:12 437.475
RS-15 23 Jan 07:44:39 07:56:59 80° 118° (ESE) 08:09:09 29.354- 29.394
STRAND 1 23 Jan 07:46:12 07:50:00 21° 267° (W) 07:53:49 437.568
XW-2A 23 Jan 07:54:32 07:57:54 87° 102° (ESE) 08:01:13 145.665 - 145.685
UWE-3 23 Jan 08:16:33 08:20:52 38° 289° (WNW) 08:25:07 435.000/436.395/437.385
YUBILEINY 23 Jan 08:16:43 08:23:15 23° 65° (ENE) 08:29:42 435.215
TIGRISAT 23 Jan 08:16:50 08:20:48 33° 69° (ENE) 08:24:53 435.000
CUBEBUG 2 23 Jan 08:17:15 08:21:00 23° 293° (WNW) 08:24:43 437.445
FO-29 23 Jan 08:21:57 08:27:44 30° 264° (W) 08:33:00 435.910
AAUSAT CUBESAT 2 23 Jan 08:28:50 08:32:32 33° 289° (WNW) 08:36:13 437.432
UNISAT 6 23 Jan 08:32:27 08:36:46 53° 73° (ENE) 08:41:13 437.425
ZACube-1 23 Jan 08:34:07 08:38:29 46° 288° (WNW) 08:42:45 437.345
O/OREOS (USA 219) 23 Jan 08:34:13 08:37:27 19° 56° (NE) 08:40:42 437.305
AO-73 23 Jan 08:39:12 08:43:33 46° 288° (WNW) 08:47:47 145.935
DELFI C3 23 Jan 08:40:39 08:43:30 19° 94° (E) 08:46:20 145.870
Max Valier Satellite 23 Jan 08:47:11 08:49:08 14° 92° (E) 08:51:02 145.860
BEESAT 3 23 Jan 08:57:51 09:01:49 84° 300° (WNW) 09:05:50 437.485
EO-88 23 Jan 08:59:51 09:01:20 12° 91° (E) 09:02:50 145.990 - 145.960
HO-68 23 Jan 09:03:01 09:07:35 18° 305° (NW) 09:12:09 435.675
Oscar 11 23 Jan 09:09:41 09:13:35 34° 290° (WNW) 09:17:27 .
PCSat 23 Jan 09:11:08 09:16:32 84° 118° (ESE) 09:22:00 145.827
